Location: Street
(51.1247°N, 2.7429°W)
Time: 06:40:09
(UTC+01:00)

NANOSAT C BR1 - Pass Details

Date: 11 April 2023
Orbit: 573 x 587 km, 98.0° (Epoch: 29 May)

Event Time Altitude Azimuth Distance (km) Brightness Sun altitude
Rises 03:25:23 0° 21° (NNE) 2,802 ? -24.1°
Reaches altitude 10° 03:27:43 10° 30° (NNE) 1,896 ? -23.9°
Maximum altitude 03:31:28 34° 97° (E) 952 ? -23.5°
Enters shadow 03:32:31 30° 128° (SE) 1,054 ? -23.4°
